Year,Month,Day,Hour,Minute,Value (Times are PST for temperature in C)
2021,05,04,10,08,11.40
2021,05,04,10,09,11.40
2021,05,04,10,10,11.40
2021,05,04,10,11,11.30
2021,05,04,10,12,11.30
2021,05,04,10,13,11.20
2021,05,04,10,14,11.30
2021,05,04,10,15,11.30
2021,05,04,10,16,11.40
2021,05,04,10,17,11.40
2021,05,04,10,18,11.30
2021,05,04,10,19,11.40
2021,05,04,10,20,11.40
2021,05,04,10,21,11.50
2021,05,04,10,22,11.50
2021,05,04,10,23,11.50
2021,05,04,10,24,11.50
2021,05,04,10,25,11.50
2021,05,04,10,26,11.40
2021,05,04,10,27,11.40
2021,05,04,10,28,11.40
2021,05,04,10,29,11.40
2021,05,04,10,30,11.40
2021,05,04,10,31,11.40
2021,05,04,10,32,11.40
2021,05,04,10,33,11.40
2021,05,04,10,34,11.50
2021,05,04,10,35,11.50
2021,05,04,10,36,11.60
2021,05,04,10,37,11.70
2021,05,04,10,38,11.70
2021,05,04,10,39,11.70
2021,05,04,10,40,11.80
2021,05,04,10,41,11.80
2021,05,04,10,42,11.70
2021,05,04,10,43,11.70
2021,05,04,10,44,11.70
2021,05,04,10,45,11.70
2021,05,04,10,46,11.70
2021,05,04,10,47,11.80
2021,05,04,10,48,11.80
2021,05,04,10,49,11.90
2021,05,04,10,50,12.00
2021,05,04,10,51,12.20
2021,05,04,10,52,12.20
2021,05,04,10,53,12.30
2021,05,04,10,54,12.40
2021,05,04,10,55,12.60
2021,05,04,10,56,12.60
2021,05,04,10,57,12.60
2021,05,04,10,58,12.40
2021,05,04,10,59,12.30
2021,05,04,11,00,12.30
2021,05,04,11,01,12.40
2021,05,04,11,02,12.40
2021,05,04,11,03,12.40
2021,05,04,11,04,12.40
2021,05,04,11,05,12.40
2021,05,04,11,06,12.40
2021,05,04,11,07,12.40
2021,05,04,11,08,12.50
2021,05,04,11,09,12.60
2021,05,04,11,10,12.70
2021,05,04,11,11,12.80
2021,05,04,11,12,12.90
2021,05,04,11,13,13.10
2021,05,04,11,14,13.20
2021,05,04,11,15,13.30
2021,05,04,11,16,13.20
2021,05,04,11,17,13.10
2021,05,04,11,18,12.90
2021,05,04,11,19,12.80
2021,05,04,11,20,12.80
2021,05,04,11,21,12.70
2021,05,04,11,22,12.70
2021,05,04,11,23,12.60
2021,05,04,11,24,12.70
2021,05,04,11,25,12.80
2021,05,04,11,26,12.80
2021,05,04,11,27,12.90
2021,05,04,11,28,12.90
2021,05,04,11,29,12.80
2021,05,04,11,30,12.80
2021,05,04,11,31,12.70
2021,05,04,11,32,12.70
2021,05,04,11,33,12.70
2021,05,04,11,34,12.60
2021,05,04,11,35,12.60
2021,05,04,11,36,12.70
2021,05,04,11,37,12.70
2021,05,04,11,38,12.70
2021,05,04,11,39,12.70
2021,05,04,11,40,12.70
2021,05,04,11,41,12.70
2021,05,04,11,42,12.70
2021,05,04,11,43,12.80
2021,05,04,11,44,12.80
2021,05,04,11,45,12.80
2021,05,04,11,46,12.70
2021,05,04,11,47,12.80
2021,05,04,11,48,12.80
2021,05,04,11,49,12.80
2021,05,04,11,50,12.80
2021,05,04,11,51,12.80
2021,05,04,11,52,12.80
2021,05,04,11,53,12.80
2021,05,04,11,54,12.80
2021,05,04,11,55,12.90
2021,05,04,11,56,13.00
2021,05,04,11,57,12.90
2021,05,04,11,58,12.80
2021,05,04,11,59,12.80
2021,05,04,12,00,12.90
2021,05,04,12,01,12.90
2021,05,04,12,02,13.00
2021,05,04,12,03,13.00
2021,05,04,12,04,13.00
2021,05,04,12,05,12.90
2021,05,04,12,06,12.90
2021,05,04,12,07,12.90
2021,05,04,12,08,12.90
2021,05,04,12,09,12.90
2021,05,04,12,10,12.90
2021,05,04,12,11,12.90
2021,05,04,12,12,12.90
2021,05,04,12,13,13.00
2021,05,04,12,14,13.10
2021,05,04,12,15,13.10
2021,05,04,12,16,13.10
2021,05,04,12,17,13.20
2021,05,04,12,18,13.20
2021,05,04,12,19,13.30
2021,05,04,12,20,13.40
2021,05,04,12,21,13.40
2021,05,04,12,22,13.40
2021,05,04,12,23,13.40
2021,05,04,12,24,13.50
2021,05,04,12,25,13.50
2021,05,04,12,26,13.60
2021,05,04,12,27,13.60
2021,05,04,12,28,13.60
2021,05,04,12,29,13.60
2021,05,04,12,30,13.60
2021,05,04,12,31,13.50
2021,05,04,12,32,13.40
2021,05,04,12,33,13.40
2021,05,04,12,34,13.40
2021,05,04,12,35,13.50
2021,05,04,12,36,13.60
2021,05,04,12,37,13.60
2021,05,04,12,38,13.60
2021,05,04,12,39,13.60
2021,05,04,12,40,13.60
2021,05,04,12,41,13.50
2021,05,04,12,42,13.50
2021,05,04,12,43,13.60
2021,05,04,12,44,13.60
2021,05,04,12,45,13.60
2021,05,04,12,46,13.70
2021,05,04,12,47,13.70
2021,05,04,12,48,13.70
2021,05,04,12,49,13.80
2021,05,04,12,50,13.80
2021,05,04,12,51,13.70
2021,05,04,12,52,13.60
2021,05,04,12,53,13.60
2021,05,04,12,54,13.60
2021,05,04,12,55,13.60
2021,05,04,12,56,13.60
2021,05,04,12,57,13.70
2021,05,04,12,58,13.70
2021,05,04,12,59,13.80
2021,05,04,13,00,13.70
2021,05,04,13,01,13.70
2021,05,04,13,02,13.80
2021,05,04,13,03,13.90
2021,05,04,13,04,14.00
2021,05,04,13,05,14.00
2021,05,04,13,06,14.10
2021,05,04,13,07,14.00
2021,05,04,13,08,14.00
2021,05,04,13,09,14.00
2021,05,04,13,10,13.90
2021,05,04,13,11,13.80
2021,05,04,13,12,13.70
2021,05,04,13,13,13.70
2021,05,04,13,14,13.60
2021,05,04,13,15,13.50
2021,05,04,13,16,13.40
2021,05,04,13,17,13.40
2021,05,04,13,18,13.40
2021,05,04,13,19,13.50
2021,05,04,13,20,13.70
2021,05,04,13,21,13.70
2021,05,04,13,22,13.70
2021,05,04,13,23,13.60
2021,05,04,13,24,13.70
2021,05,04,13,25,13.70
2021,05,04,13,26,13.70
2021,05,04,13,27,13.50
2021,05,04,13,28,13.40
2021,05,04,13,29,13.50
2021,05,04,13,30,13.60
2021,05,04,13,31,13.80
2021,05,04,13,32,13.80
2021,05,04,13,33,13.80
2021,05,04,13,34,13.80
2021,05,04,13,35,13.80
2021,05,04,13,36,13.80
2021,05,04,13,37,13.80
2021,05,04,13,38,13.80
2021,05,04,13,39,13.80
2021,05,04,13,40,13.70
2021,05,04,13,41,13.80
2021,05,04,13,42,13.90
2021,05,04,13,43,13.90
2021,05,04,13,44,14.00
2021,05,04,13,45,14.00
2021,05,04,13,46,13.90
2021,05,04,13,47,13.80
2021,05,04,13,48,13.80
2021,05,04,13,49,13.80
2021,05,04,13,50,13.80
2021,05,04,13,51,13.90
2021,05,04,13,52,13.90
2021,05,04,13,53,13.90
2021,05,04,13,54,13.90
2021,05,04,13,55,14.00
2021,05,04,13,56,14.00
2021,05,04,13,57,14.00
2021,05,04,13,58,14.00
2021,05,04,13,59,14.00
2021,05,04,14,00,14.10
2021,05,04,14,01,14.20
2021,05,04,14,02,14.20
2021,05,04,14,03,14.30
2021,05,04,14,04,14.30
2021,05,04,14,05,14.30
2021,05,04,14,06,14.50
2021,05,04,14,07,14.60
2021,05,04,14,08,14.70
2021,05,04,14,09,14.60
2021,05,04,14,10,14.70
2021,05,04,14,11,14.50
2021,05,04,14,12,14.50
2021,05,04,14,13,14.40
2021,05,04,14,14,14.30
2021,05,04,14,15,14.30
2021,05,04,14,16,14.30
2021,05,04,14,17,14.30
2021,05,04,14,18,14.30
2021,05,04,14,19,14.30
2021,05,04,14,20,14.30
2021,05,04,14,21,14.30
2021,05,04,14,22,14.30
2021,05,04,14,23,14.30
2021,05,04,14,24,14.40
2021,05,04,14,25,14.60
2021,05,04,14,26,14.70
2021,05,04,14,27,14.90
2021,05,04,14,28,15.00
2021,05,04,14,29,14.90
2021,05,04,14,30,14.90
2021,05,04,14,31,14.90
2021,05,04,14,32,14.90
2021,05,04,14,33,14.80
2021,05,04,14,34,14.60
2021,05,04,14,35,14.50
2021,05,04,14,36,14.50
2021,05,04,14,37,14.40
2021,05,04,14,38,14.50
2021,05,04,14,39,14.50
2021,05,04,14,40,14.50
2021,05,04,14,41,14.50
2021,05,04,14,42,14.40
2021,05,04,14,43,14.50
2021,05,04,14,44,14.60
2021,05,04,14,45,14.60
2021,05,04,14,46,14.70
2021,05,04,14,47,14.70
2021,05,04,14,48,14.70
2021,05,04,14,49,14.70
2021,05,04,14,50,14.80
2021,05,04,14,51,14.80
2021,05,04,14,52,14.80
2021,05,04,14,53,14.90
2021,05,04,14,54,15.00
2021,05,04,14,55,15.00
2021,05,04,14,56,15.00
2021,05,04,14,57,15.00
2021,05,04,14,58,15.10
2021,05,04,14,59,15.10
2021,05,04,15,00,15.10
2021,05,04,15,01,14.90
2021,05,04,15,02,14.90
2021,05,04,15,03,15.00
2021,05,04,15,04,15.10
2021,05,04,15,05,15.10
2021,05,04,15,06,15.10
2021,05,04,15,07,15.10
2021,05,04,15,08,15.10
2021,05,04,15,09,15.10
2021,05,04,15,10,15.00
2021,05,04,15,11,15.10
2021,05,04,15,12,15.00
2021,05,04,15,13,14.80
2021,05,04,15,14,14.70
2021,05,04,15,15,14.70
2021,05,04,15,16,14.70
2021,05,04,15,17,14.70
2021,05,04,15,18,14.80
2021,05,04,15,19,14.80
2021,05,04,15,20,14.80
2021,05,04,15,21,14.90
2021,05,04,15,22,15.00
2021,05,04,15,23,15.10
2021,05,04,15,24,15.10
2021,05,04,15,25,15.00
2021,05,04,15,26,15.00
2021,05,04,15,27,15.00
2021,05,04,15,28,15.00
2021,05,04,15,29,14.80
2021,05,04,15,30,14.80
2021,05,04,15,31,14.70
2021,05,04,15,32,14.60
2021,05,04,15,33,14.60
2021,05,04,15,34,14.60
2021,05,04,15,35,14.60
2021,05,04,15,36,14.70
2021,05,04,15,37,14.80
2021,05,04,15,38,14.80
2021,05,04,15,39,14.90
2021,05,04,15,40,15.00
2021,05,04,15,41,15.20
2021,05,04,15,42,15.30
2021,05,04,15,43,15.40
2021,05,04,15,44,15.50
2021,05,04,15,45,15.50
2021,05,04,15,46,15.50
2021,05,04,15,47,15.40
2021,05,04,15,48,15.40
2021,05,04,15,49,15.40
2021,05,04,15,50,15.40
2021,05,04,15,51,15.30
2021,05,04,15,52,15.30
2021,05,04,15,53,15.30
2021,05,04,15,54,15.30
2021,05,04,15,55,15.30
2021,05,04,15,56,15.20
2021,05,04,15,57,15.20
2021,05,04,15,58,15.30
2021,05,04,15,59,15.30
2021,05,04,16,00,15.30
2021,05,04,16,01,15.30
2021,05,04,16,02,15.40
2021,05,04,16,03,15.40
2021,05,04,16,04,15.40
2021,05,04,16,05,15.40
2021,05,04,16,06,15.50
2021,05,04,16,07,15.50
2021,05,04,16,08,15.60
2021,05,04,16,09,15.60
2021,05,04,16,10,15.70
2021,05,04,16,11,15.70
2021,05,04,16,12,15.60
2021,05,04,16,13,15.50
2021,05,04,16,14,15.40
2021,05,04,16,15,15.30
2021,05,04,16,16,15.20
2021,05,04,16,17,15.20
2021,05,04,16,18,15.20
2021,05,04,16,19,15.10
2021,05,04,16,20,15.00
2021,05,04,16,21,15.00
2021,05,04,16,22,15.00
2021,05,04,16,23,15.10
2021,05,04,16,24,15.10
2021,05,04,16,25,15.20
2021,05,04,16,26,15.20
2021,05,04,16,27,15.20
2021,05,04,16,28,15.30
2021,05,04,16,29,15.30
2021,05,04,16,30,15.30
2021,05,04,16,31,15.40
2021,05,04,16,32,15.40
2021,05,04,16,33,15.40
2021,05,04,16,34,15.50
2021,05,04,16,35,15.50
2021,05,04,16,36,15.30
2021,05,04,16,37,15.30
2021,05,04,16,38,15.30
2021,05,04,16,39,15.30
2021,05,04,16,40,15.30
2021,05,04,16,41,15.30
2021,05,04,16,42,15.40
2021,05,04,16,43,15.30
2021,05,04,16,44,15.30
2021,05,04,16,45,15.30
2021,05,04,16,46,15.30
2021,05,04,16,47,15.20
2021,05,04,16,48,15.20
2021,05,04,16,49,15.10
2021,05,04,16,50,15.10
2021,05,04,16,51,15.00
2021,05,04,16,52,14.90
2021,05,04,16,53,14.80
2021,05,04,16,54,14.80
2021,05,04,16,55,14.70
2021,05,04,16,56,14.70
2021,05,04,16,57,14.60
2021,05,04,16,58,14.60
2021,05,04,16,59,14.70
2021,05,04,17,00,14.70
2021,05,04,17,01,14.60
2021,05,04,17,02,14.50
2021,05,04,17,03,14.50
2021,05,04,17,04,14.40
2021,05,04,17,05,14.40
2021,05,04,17,06,14.50
2021,05,04,17,07,14.60
2021,05,04,17,08,14.60
2021,05,04,17,09,14.50
2021,05,04,17,10,14.50
2021,05,04,17,11,14.50
2021,05,04,17,12,14.50
2021,05,04,17,13,14.50
2021,05,04,17,14,14.50
2021,05,04,17,15,14.50
2021,05,04,17,16,14.50
2021,05,04,17,17,14.50
2021,05,04,17,18,14.40
2021,05,04,17,19,14.40
2021,05,04,17,20,14.40
2021,05,04,17,21,14.30
2021,05,04,17,22,14.30
2021,05,04,17,23,14.40
2021,05,04,17,24,14.40
2021,05,04,17,25,14.40
2021,05,04,17,26,14.40
2021,05,04,17,27,14.30
2021,05,04,17,28,14.30
2021,05,04,17,29,14.30
2021,05,04,17,30,14.20
2021,05,04,17,31,14.20
2021,05,04,17,32,14.20
2021,05,04,17,33,14.20
2021,05,04,17,34,14.10
2021,05,04,17,35,14.10
2021,05,04,17,36,14.10
2021,05,04,17,37,14.10
2021,05,04,17,38,14.10
2021,05,04,17,39,14.10
2021,05,04,17,40,14.10
2021,05,04,17,41,14.10
2021,05,04,17,42,14.10
2021,05,04,17,43,14.20
2021,05,04,17,44,14.20
2021,05,04,17,45,14.20
2021,05,04,17,46,14.20
2021,05,04,17,47,14.30
2021,05,04,17,48,14.30
2021,05,04,17,49,14.40
2021,05,04,17,50,14.40
2021,05,04,17,51,14.40
2021,05,04,17,52,14.40
2021,05,04,17,53,14.40
2021,05,04,17,54,14.30
2021,05,04,17,55,14.30
2021,05,04,17,56,14.30
2021,05,04,17,57,14.20
2021,05,04,17,58,14.10
2021,05,04,17,59,14.10
2021,05,04,18,00,14.00
2021,05,04,18,01,14.00
2021,05,04,18,02,14.00
2021,05,04,18,03,14.00
2021,05,04,18,04,14.00
2021,05,04,18,05,13.90
2021,05,04,18,06,13.90
2021,05,04,18,07,13.90
2021,05,04,18,08,13.90
2021,05,04,18,09,13.90
2021,05,04,18,10,13.90
2021,05,04,18,11,14.00
2021,05,04,18,12,14.00
2021,05,04,18,13,14.00
2021,05,04,18,14,14.00
2021,05,04,18,15,14.00
2021,05,04,18,16,14.00
2021,05,04,18,17,14.10
2021,05,04,18,18,14.10
2021,05,04,18,19,14.10
2021,05,04,18,20,14.20
2021,05,04,18,21,14.20
2021,05,04,18,22,14.20
2021,05,04,18,23,14.10
2021,05,04,18,24,14.00
2021,05,04,18,25,13.90
2021,05,04,18,26,13.80
2021,05,04,18,27,13.80
2021,05,04,18,28,13.80
2021,05,04,18,29,13.80
2021,05,04,18,30,13.70
2021,05,04,18,31,13.70
2021,05,04,18,32,13.60
2021,05,04,18,33,13.60
2021,05,04,18,34,13.60
2021,05,04,18,35,13.60
2021,05,04,18,36,13.60
2021,05,04,18,37,13.60
2021,05,04,18,38,13.60
2021,05,04,18,39,13.50
2021,05,04,18,40,13.50
2021,05,04,18,41,13.40
2021,05,04,18,42,13.30
2021,05,04,18,43,13.20
2021,05,04,18,44,13.20
2021,05,04,18,45,13.10
2021,05,04,18,46,13.00
2021,05,04,18,47,12.90
2021,05,04,18,48,12.90
2021,05,04,18,49,12.80
2021,05,04,18,50,12.80
2021,05,04,18,51,12.70
2021,05,04,18,52,12.70
2021,05,04,18,53,12.60
2021,05,04,18,54,12.50
2021,05,04,18,55,12.40
2021,05,04,18,56,12.40
2021,05,04,18,57,12.30
2021,05,04,18,58,12.30
2021,05,04,18,59,12.30
2021,05,04,19,00,12.30
2021,05,04,19,01,12.30
2021,05,04,19,02,12.30
2021,05,04,19,03,12.30
2021,05,04,19,04,12.30
2021,05,04,19,05,12.40
2021,05,04,19,06,12.40
2021,05,04,19,07,12.40
2021,05,04,19,08,12.40
2021,05,04,19,09,12.40
2021,05,04,19,10,12.50
2021,05,04,19,11,12.50
2021,05,04,19,12,12.60
2021,05,04,19,13,12.60
2021,05,04,19,14,12.60
2021,05,04,19,15,12.60
2021,05,04,19,16,12.60
2021,05,04,19,17,12.60
2021,05,04,19,18,12.60
2021,05,04,19,19,12.60
2021,05,04,19,20,12.50
2021,05,04,19,21,12.50
2021,05,04,19,22,12.40
2021,05,04,19,23,12.40
2021,05,04,19,24,12.40
2021,05,04,19,25,12.40
2021,05,04,19,26,12.30
2021,05,04,19,27,12.20
2021,05,04,19,28,12.20
2021,05,04,19,29,12.10
2021,05,04,19,30,12.10
2021,05,04,19,31,12.10
2021,05,04,19,32,12.10
2021,05,04,19,33,12.00
2021,05,04,19,34,11.90
2021,05,04,19,35,11.90
2021,05,04,19,36,11.80
2021,05,04,19,37,11.80
2021,05,04,19,38,11.80
2021,05,04,19,39,11.80
2021,05,04,19,40,11.70
2021,05,04,19,41,11.60
2021,05,04,19,42,11.60
2021,05,04,19,43,11.60
2021,05,04,19,44,11.50
2021,05,04,19,45,11.50
2021,05,04,19,46,11.50
2021,05,04,19,47,11.40
2021,05,04,19,48,11.40
2021,05,04,19,49,11.40
2021,05,04,19,50,11.40
2021,05,04,19,51,11.30
2021,05,04,19,52,11.30
2021,05,04,19,53,11.30
2021,05,04,19,54,11.30
2021,05,04,19,55,11.30
2021,05,04,19,56,11.30
2021,05,04,19,57,11.30
2021,05,04,19,58,11.30
2021,05,04,19,59,11.30
2021,05,04,20,00,11.40
2021,05,04,20,01,11.30
2021,05,04,20,02,11.30
2021,05,04,20,03,11.30
2021,05,04,20,04,11.30
2021,05,04,20,05,11.30
2021,05,04,20,06,11.30
2021,05,04,20,07,11.20
2021,05,04,20,08,11.20
2021,05,04,20,09,11.20
2021,05,04,20,10,11.20
2021,05,04,20,11,11.10
2021,05,04,20,12,11.10
2021,05,04,20,13,11.10
2021,05,04,20,14,11.00
2021,05,04,20,15,11.00
2021,05,04,20,16,10.90
2021,05,04,20,17,10.90
2021,05,04,20,18,10.80
2021,05,04,20,19,10.80
2021,05,04,20,20,10.80
2021,05,04,20,21,10.80
2021,05,04,20,22,10.80
2021,05,04,20,23,10.80
2021,05,04,20,24,10.80
2021,05,04,20,25,10.80
2021,05,04,20,26,10.80
2021,05,04,20,27,10.80
2021,05,04,20,28,10.80
